Wells Aircraft, Inc. Hutchinson Municipal
(888) 496-5545
800 Airport Road
Hutchinson, KS 67501
(change)
Av Fuel Aviation Fuel Jet A: $5.06
100LL: $5.01
Prices current
Aug 9, 2018

Location

Wells Aircraft is located on the south end of the Hutchinson Municipal Airport (KHUT), in Hutchinson, Kansas.

Wells Aircraft, Inc.
800 Airport Road
Hutchinson, KS 67501
Map
Wells Location at KHUT

Quick Links


AirNav Information
(KHUT)

Hutchinson Weather

Hutchinson (KHUT)
Airport Diagram

Additional Resources

They say, "if you don't like the weather in Kansas, wait five minutes and it'll change." Be prepared with these aviation resources.

KHUT 190052Z 36003KT 10SM SCT050 26/22 A2994 RMK AO2 SLP119 T02560222                KHUT 190052Z 36003KT 10SM SCT050 26/22 A2994 RMK AO2 SLP119 T02560222                KHUT 190052Z 36003KT 10SM SCT050 26/22 A2994 RMK AO2 SLP119 T02560222                KHUT 190052Z 36003KT 10SM SCT050 26/22 A2994 RMK AO2 SLP119 T02560222                KHUT 190052Z 36003KT 10SM SCT050 26/22 A2994 RMK AO2 SLP119 T02560222                KHUT 190052Z 36003KT 10SM SCT050 26/22 A2994 RMK AO2 SLP119 T02560222                
 
 
Cirrus Aircraft